This is the latest recevied weather packets stored in our database for station/object W3AJR. If no packets are shown the sender has not sent any weather packets the latest 10 day(s).
| Time | Temp. | Humidity | Pressure | Rain* | Wind** | Luminosity | Snow |
|---|---|---|---|---|---|---|---|
| 1777840856 | 18.33° C | 29% | 1014.2 hPa | 0 mm | - | 507 W/m² | - |
| 1777840553 | 17.78° C | 28% | 1014.2 hPa | 0 mm | - | 504 W/m² | - |
| 1777840250 | 17.78° C | 28% | 1014.3 hPa | 0 mm | - | 518 W/m² | - |
| 1777839948 | 18.33° C | 28% | 1014.2 hPa | 0 mm | - | 525 W/m² | - |
| 1777839645 | 17.78° C | 27% | 1014.4 hPa | 0 mm | - | 566 W/m² | - |
| 1777839343 | 17.78° C | 30% | 1014.7 hPa | 0 mm | - | 573 W/m² | - |
| 1777839040 | 17.78° C | 29% | 1014.7 hPa | 0 mm | - | 551 W/m² | - |
| 1777838736 | 17.78° C | 30% | 1014.6 hPa | 0 mm | - | 575 W/m² | - |
| 1777838433 | 17.78° C | 31% | 1014.7 hPa | 0 mm | - | 590 W/m² | - |
| 1777838130 | 17.78° C | 29% | 1014.5 hPa | 0 mm | - | 569 W/m² | - |
| 1777837827 | 17.22° C | 31% | 1014.9 hPa | 0 mm | - | 597 W/m² | - |
| 1777837524 | 17.22° C | 30% | 1014.7 hPa | 0 mm | - | 593 W/m² | - |
| 1777837224 | 17.78° C | 31% | 1015 hPa | 0 mm | - | 593 W/m² | - |
| 1777836921 | 17.22° C | 30% | 1015.3 hPa | 0 mm | - | 623 W/m² | - |
| 1777836616 | 17.22° C | 30% | 1015.2 hPa | 0 mm | - | 617 W/m² | - |
| 1777836313 | 17.22° C | 30% | 1015.4 hPa | 0 mm | - | 613 W/m² | - |
| 1777836008 | 16.67° C | 32% | 1015.4 hPa | 0 mm | - | 656 W/m² | - |
| 1777835706 | 17.22° C | 32% | 1015.3 hPa | 0 mm | - | 349 W/m² | - |
| 1777835402 | 17.22° C | 32% | 1015.5 hPa | 0 mm | - | 698 W/m² | - |
| 1777835099 | 16.67° C | 33% | 1015.4 hPa | 0 mm | - | 667 W/m² | - |
| 1777834796 | 16.67° C | 31% | 1015.6 hPa | 0 mm | - | 672 W/m² | - |
| 1777834493 | 16.11° C | 30% | 1015.9 hPa | 0 mm | - | 681 W/m² | - |
| 1777834192 | 16.11° C | 31% | 1015.9 hPa | 0 mm | - | 690 W/m² | - |
| 1777833889 | 16.67° C | 30% | 1015.9 hPa | 0 mm | - | 686 W/m² | - |
| 1777833585 | 16.67° C | 32% | 1015.6 hPa | 0 mm | - | 665 W/m² | - |
* Rain latest hour (hover to see other rain measurements)
** Current wind speed in m/s (hover to see current wind gust speed)